Regional Weather Roundup
Issued by NWS Little Rock, AR

Home | Current Version | Previous Version | Text Only | Print | Product List | Glossary Off
Versions: 1 2 3 4 5 6 7 8 9 10 11 12 13 14 15 16 17 18 19 20 21 22 23 24 25 26 27 28 29 30 31 32 33 34 35 36 37 38 39 40 41 42 43 44 45 46 47 48 49 50

000
ASUS44 KLZK 291405
RWRLZK

WEATHER ROUNDUP FOR ARKANSAS
NATIONAL WEATHER SERVICE LITTLE ROCK AR
900 AM CDT FRI AUG 29 2014

NOTE: "FAIR" INDICATES FEW OR NO CLOUDS BELOW 12,000 FEET WITH NO
SIGNIFICANT WEATHER AND/OR OBSTRUCTIONS TO VISIBILITY.

ARZ001-003-010-029-291500-
NORTHWEST ARKANSAS

CITY           SKY/WX    TMP DP  RH WIND       PRES   REMARKS
FAYETTEVILLE   MOSUNNY   77  69  76 S10       29.94S
FORT SMITH     MOSUNNY   81  70  69 SE6       29.91S
HARRISON       SUNNY     76  67  73 S7        29.98R
BENTONVILLE    PTSUNNY   77  68  73 S8        29.94S
ROGERS         MOSUNNY   75  67  76 SE8       29.95S
SILOAM SPGS    MOSUNNY   79  66  65 S12       29.95R
HIGHFILL       PTSUNNY   77  68  73 S9        29.93S
SPRINGDALE     PTSUNNY   75  68  78 SE8       29.96
$$

ARZ004-005-016-291500-
NORTH CENTRAL ARKANSAS

CITY           SKY/WX    TMP DP  RH WIND       PRES   REMARKS
BATESVILLE     MOSUNNY   79  66  65 CALM      29.96S
FLIPPIN        SUNNY     75  63  64 CALM      29.96S
MTN HOME       SUNNY     78  65  63 SE7       29.96S
$$

ARZ040-041-291500-
WEST CENTRAL ARKANSAS

CITY           SKY/WX    TMP DP  RH WIND       PRES   REMARKS
MENA           MOSUNNY   81  73  78 CALM      29.97S HX  85
MOUNT IDA      MOSUNNY   78  73  84 CALM      29.95R
$$

ARZ009-017-025-026-028-291500-
NORTHEAST ARKANSAS

CITY           SKY/WX    TMP DP  RH WIND       PRES   REMARKS
CORNING          N/A     81  73  78 S5        29.98R HX  85
JONESBORO      SUNNY     79  69  71 S3        29.97S
NEWPORT        SUNNY     79  70  74 SE5       29.97F
WALNUT RIDGE   SUNNY     79   0   4 S8        29.96S
BLYTHEVILLE      N/A     80  73  79 S6        29.98S
$$

ARZ022-023-033-042-044-291500-
CENTRAL ARKANSAS

CITY           SKY/WX    TMP DP  RH WIND       PRES   REMARKS
LITTLE ROCK    CLOUDY    75  69  81 S5        29.97R
N LITTLE ROCK  CLOUDY    77  71  82 S5        29.97R
JACKSONVILLE   PTSUNNY   76  72  87 E1        29.97R
SEARCY         SUNNY     78  71  79 W3        29.98R
HOT SPRINGS    SUNNY     79  73  82 SE3       29.97S
RUSSELLVILLE   CLOUDY    76  71  85 CALM      29.95S
CLINTON        FAIR      77  68  73 CALM      29.97S
$$

ARZ036-291500-
EAST ARKANSAS

CITY           SKY/WX    TMP DP  RH WIND       PRES   REMARKS
WEST MEMPHIS   SUNNY     81  72  74 VRB5      29.98R HX  85
$$

ARZ050-053-066-070-073-291500-
SOUTHWEST ARKANSAS

CITY           SKY/WX    TMP DP  RH WIND       PRES   REMARKS
ARKADELPHIA    FAIR      81  74  79 CALM      29.97S HX  86
CAMDEN         SUNNY     81  72  74 CALM      29.96S
TEXARKANA      CLOUDY    76  74  93 S3        29.95F
EL DORADO      PTSUNNY   78  73  84 SW3       29.97S
DE QUEEN       CLOUDY    77  73  87 SW3       29.94R
$$

ARZ056-057-069-291500-
SOUTHEAST ARKANSAS

CITY           SKY/WX    TMP DP  RH WIND       PRES   REMARKS
PINE BLUFF     PTSUNNY   74  71  91 CALM      29.97F
STUTTGART      CLOUDY    75  72  88 S8        30.00R
MONTICELLO     SUNNY     80  72  76 CALM      29.97F

$$





USA.gov is the U.S. government's official web portal to all federal, state and local government web resources and services.